Weather History for Hilo, HI

Change the Weather History Date:

Monday, October 14, 2013

  Actual Average Record
Temperature  
Mean Temperature 76 °F 76 °F  
Max Temperature 84 °F 83 °F 89 °F (1991)
Min Temperature 68 °F 69 °F 63 °F (1955)
Degree Days  
Heating Degree Days 0 0  
Month to date heating degree days 0 0  
Since 1 July heating degree days 0 0  
Cooling Degree Days 11 11  
Month to date cooling degree days 167 154  
Year to date cooling degree days 2763 2562  
Growing Degree Days 24 (Base 50)    
Moisture  
Dew Point 67 °F    
Average Humidity 74    
Maximum Humidity 90    
Minimum Humidity 58    
Precipitation  
Precipitation 0.00 in 0.29 in 1.94 in (1960)
Month to date precipitation 3.62 4.11  
Year to date precipitation 72.14 93.99  
Snow  
Snow 0.00 in - - ()
Month to date snowfall 0.0  
Since 1 July snowfall 0.0  
Since 1 September snowfall 0.0  
Snow Depth 0.00 in    
Sea Level Pressure  
Sea Level Pressure 29.95 in    
Wind  
Wind Speed 7 mph (SSW)    
Max Wind Speed 13 mph    
Max Gust Speed 15 mph    
Visibility 9 miles    
Events Rain    
T = Trace of Precipitation, MM = Missing Value Source: NWS Daily Summary

Daily Weather History Graph

Daily Weather History Graph

Search for Another Location

Airport:

Trip Planner

Search our weather history database for the weather conditions in past years. The results will help you decide how hot, cold, wet, or windy it might be!

Date:

Astronomy

Oct. 14, 2013 Rise Set
Actual Time 6:14 AM HST 5:57 PM HST
Civil Twilight 5:52 AM HST 6:19 PM HST
Nautical Twilight 5:26 AM HST 6:45 PM HST
Astronomical Twilight 5:01 AM HST 7:10 PM HST
Moon 3:05 PM HST (10/14) 2:16 AM HST (10/14)
Length of Visible Light 12h 26m
Length of Day
11h 42m
Waxing Gibbous, 81% of the Moon is Illuminated
Oct 14
Waxing Gibbous
Oct 18
Full
Oct 26
Last Quarter
Nov 3
New
Nov 9
First Quarter

Hourly Weather History & Observations

Time (HST) Temp. Heat Index Dew Point Humidity Pressure Visibility Wind Dir Wind Speed Gust Speed Precip Events Conditions
12:53 AM 69.1 °F - 64.9 °F 87% 29.97 in 10.0 mi SW 5.8 mph - N/A   Scattered Clouds
1:53 AM 69.1 °F - 63.0 °F 81% 29.95 in 10.0 mi SW 6.9 mph - N/A   Partly Cloudy
2:53 AM 68.0 °F - 62.1 °F 81% 29.94 in 10.0 mi SW 6.9 mph - N/A   Clear
3:53 AM 68.0 °F - 61.0 °F 78% 29.93 in 10.0 mi SW 6.9 mph - N/A   Scattered Clouds
4:53 AM 68.0 °F - 61.0 °F 78% 29.94 in 10.0 mi SW 6.9 mph - N/A   Scattered Clouds
5:53 AM 68.0 °F - 62.1 °F 81% 29.95 in 10.0 mi SW 5.8 mph - N/A   Scattered Clouds
6:53 AM 69.1 °F - 62.1 °F 78% 29.96 in 10.0 mi SW 6.9 mph - N/A   Mostly Cloudy
7:53 AM 75.0 °F - 64.0 °F 69% 29.97 in 10.0 mi SSW 4.6 mph - N/A   Mostly Cloudy
8:53 AM 80.1 °F 81.7 °F 64.0 °F 58% 29.97 in 10.0 mi SE 3.5 mph - N/A   Mostly Cloudy
9:53 AM 80.1 °F 82.9 °F 69.1 °F 69% 29.97 in 10.0 mi Variable 5.8 mph - N/A   Mostly Cloudy
10:53 AM 82.0 °F 84.9 °F 68.0 °F 62% 29.96 in 10.0 mi SSE 6.9 mph - N/A   Mostly Cloudy
11:53 AM 82.0 °F 84.9 °F 68.0 °F 62% 29.93 in 10.0 mi East 9.2 mph - N/A   Mostly Cloudy
12:53 PM 82.9 °F 86.5 °F 69.1 °F 63% 29.91 in 10.0 mi East 9.2 mph - N/A   Mostly Cloudy
1:53 PM 81.0 °F 83.3 °F 66.9 °F 62% 29.90 in 10.0 mi ENE 9.2 mph - N/A   Mostly Cloudy
2:53 PM 80.1 °F 82.7 °F 68.0 °F 67% 29.90 in 10.0 mi ENE 8.1 mph - N/A   Mostly Cloudy
3:53 PM 79.0 °F - 68.0 °F 69% 29.91 in 10.0 mi East 5.8 mph - N/A   Overcast
4:53 PM 79.0 °F - 69.1 °F 72% 29.93 in 10.0 mi ENE 3.5 mph - N/A   Overcast
5:53 PM 78.1 °F - 68.0 °F 71% 29.94 in 10.0 mi Calm Calm - N/A   Overcast
6:53 PM 75.9 °F - 70.0 °F 82% 29.96 in 10.0 mi West 4.6 mph - N/A   Overcast
7:21 PM 73.9 °F - 70.0 °F 87% 29.97 in 1.8 mi West 4.6 mph - 0.03 in Rain Heavy Rain
7:31 PM 73.9 °F - 70.0 °F 87% 29.97 in 3.0 mi NW 6.9 mph - 0.17 in Rain Rain
7:53 PM 73.0 °F - 71.1 °F 93% 29.97 in 9.0 mi WNW 6.9 mph - 0.18 in Rain Light Rain
8:53 PM 73.0 °F - 71.1 °F 93% 29.99 in 10.0 mi WSW 4.6 mph - 0.00 in   Overcast
9:53 PM 73.0 °F - 71.1 °F 93% 29.99 in 10.0 mi East 5.8 mph - N/A   Overcast
10:46 PM 72.0 °F - 70.0 °F 93% 29.99 in 2.5 mi SSE 6.9 mph - 0.02 in Rain Heavy Rain
10:53 PM 72.0 °F - 70.0 °F 93% 29.99 in 2.0 mi South 6.9 mph - 0.16 in Rain Heavy Rain
11:02 PM 72.0 °F - 70.0 °F 93% 29.99 in 3.0 mi WSW 6.9 mph - 0.09 in Rain Heavy Rain
11:53 PM 72.0 °F - 70.0 °F 93% 29.98 in 10.0 mi West 6.9 mph - 0.11 in   Overcast